date_time,cpmCPUTotal1MinRev,cpmCPUTotal5MinRev
Tue Mar 12 17:00:00 2024,9.56666666666667,9
Tue Mar 12 17:30:00 2024,9,9
Tue Mar 12 18:00:00 2024,11.8666666666667,10
Tue Mar 12 18:30:00 2024,9,9
Tue Mar 12 19:00:00 2024,10.4333333333333,10
Tue Mar 12 19:30:00 2024,9,9
Tue Mar 12 20:00:00 2024,9.86666666666667,9.56666666666667
Tue Mar 12 20:30:00 2024,9,9
Tue Mar 12 21:00:00 2024,10,9
Tue Mar 12 21:30:00 2024,9,9
Tue Mar 12 22:00:00 2024,10.4333333333333,9.56666666666667
Tue Mar 12 22:30:00 2024,9,9
Tue Mar 12 23:00:00 2024,9,9
Tue Mar 12 23:30:00 2024,9,9
Wed Mar 13 00:00:00 2024,9.56666666666667,9
Wed Mar 13 00:30:00 2024,9,9
Wed Mar 13 01:00:00 2024,9.56666666666667,9
Wed Mar 13 01:30:00 2024,9,9
Wed Mar 13 02:00:00 2024,10.5666666666667,10
Wed Mar 13 02:30:00 2024,9.13333333333333,9
Wed Mar 13 03:00:00 2024,11.3,10
Wed Mar 13 03:30:00 2024,9,9
Wed Mar 13 04:00:00 2024,10.8666666666667,10
Wed Mar 13 04:30:00 2024,9,9
Wed Mar 13 05:00:00 2024,9.43333333333333,9
Wed Mar 13 05:30:00 2024,9,9
Wed Mar 13 06:00:00 2024,9.43333333333333,9
Wed Mar 13 06:30:00 2024,9,9
Wed Mar 13 07:00:00 2024,11.8666666666667,10
Wed Mar 13 07:30:00 2024,9,9
Wed Mar 13 08:00:00 2024,10.4166666666667,9
Wed Mar 13 08:30:00 2024,9,9
Wed Mar 13 09:00:00 2024,10.8333333333333,9.58333333333333
Wed Mar 13 09:30:00 2024,9,9
Wed Mar 13 10:00:00 2024,10.1666666666667,9
Wed Mar 13 10:30:00 2024,9,9
Wed Mar 13 11:00:00 2024,10.8333333333333,9
Wed Mar 13 11:30:00 2024,9,9
Wed Mar 13 12:00:00 2024,9.83333333333333,9
Wed Mar 13 12:30:00 2024,9,9
Wed Mar 13 13:00:00 2024,9,9
Wed Mar 13 13:30:00 2024,9,9
Wed Mar 13 14:00:00 2024,9,9
Wed Mar 13 14:30:00 2024,9,9
Wed Mar 13 15:00:00 2024,10,9
Wed Mar 13 15:30:00 2024,9,9
Wed Mar 13 16:00:00 2024,9.6,9
Wed Mar 13 16:30:00 2024,9,9
Wed Mar 13 17:00:00 2024,10.4,9.6
Wed Mar 13 17:30:00 2024,9,9
Wed Mar 13 18:00:00 2024,9,9
Wed Mar 13 18:30:00 2024,9,9
Wed Mar 13 19:00:00 2024,10,9
Wed Mar 13 19:30:00 2024,9,9
Wed Mar 13 20:00:00 2024,9.6,9
Wed Mar 13 20:30:00 2024,9,9
Wed Mar 13 21:00:00 2024,10.8,10
Wed Mar 13 21:30:00 2024,9,9
Wed Mar 13 22:00:00 2024,10.4,10
Wed Mar 13 22:30:00 2024,9,9
Wed Mar 13 23:00:00 2024,9.6,9
Wed Mar 13 23:30:00 2024,9,9
Thu Mar 14 00:00:00 2024,9.6,9
Thu Mar 14 00:30:00 2024,9,9
Thu Mar 14 01:00:00 2024,10.4,9.6
Thu Mar 14 01:30:00 2024,9,9
Thu Mar 14 02:00:00 2024,10,9
Thu Mar 14 02:30:00 2024,9,9
Thu Mar 14 03:00:00 2024,10.8333333333333,10
Thu Mar 14 03:30:00 2024,9,9
Thu Mar 14 04:00:00 2024,10,9
Thu Mar 14 04:30:00 2024,9,9
Thu Mar 14 05:00:00 2024,10.4166666666667,9
Thu Mar 14 05:30:00 2024,9,9
Thu Mar 14 06:00:00 2024,10.8333333333333,10
Thu Mar 14 06:30:00 2024,9,9
Thu Mar 14 07:00:00 2024,11.8333333333333,10
Thu Mar 14 07:30:00 2024,9,9
Thu Mar 14 08:00:00 2024,10.8666666666667,10
Thu Mar 14 08:30:00 2024,9,9
Thu Mar 14 09:00:00 2024,10.4333333333333,9
Thu Mar 14 09:30:00 2024,9,9
Thu Mar 14 10:00:00 2024,9.56666666666667,9
Thu Mar 14 10:30:00 2024,9,9
Thu Mar 14 11:00:00 2024,9.43333333333333,9
Thu Mar 14 11:30:00 2024,9,9
Thu Mar 14 12:00:00 2024,9.56666666666667,9
Thu Mar 14 12:30:00 2024,9,9
Thu Mar 14 13:00:00 2024,9.43333333333333,9
Thu Mar 14 13:30:00 2024,9,9
Thu Mar 14 14:00:00 2024,9.86666666666667,9
Thu Mar 14 14:30:00 2024,9,9
Thu Mar 14 15:00:00 2024,10.1333333333333,9
Thu Mar 14 15:30:00 2024,9,9
Thu Mar 14 16:00:00 2024,9.56666666666667,9
Thu Mar 14 16:30:00 2024,9,9
Thu Mar 14 17:00:00 2024,10.8666666666667,10
Thu Mar 14 17:30:00 2024,9,9
Thu Mar 14 18:00:00 2024,10.4333333333333,9
Thu Mar 14 18:30:00 2024,9,9
Thu Mar 14 19:00:00 2024,10.4333333333333,9
Thu Mar 14 19:30:00 2024,9,9
Thu Mar 14 20:00:00 2024,9.58333333333333,9
Thu Mar 14 20:30:00 2024,9,9
Thu Mar 14 21:00:00 2024,9.58333333333333,9
Thu Mar 14 21:30:00 2024,9,9
Thu Mar 14 22:00:00 2024,9.41666666666667,9
Thu Mar 14 22:30:00 2024,9,9
Thu Mar 14 23:00:00 2024,9.56666666666667,9
Thu Mar 14 23:30:00 2024,9,9
Fri Mar 15 00:00:00 2024,10.4333333333333,10
Fri Mar 15 00:30:00 2024,9,9
Fri Mar 15 01:00:00 2024,9.56666666666667,9
Fri Mar 15 01:30:00 2024,9,9
Fri Mar 15 02:00:00 2024,10,9
Fri Mar 15 02:30:00 2024,9,9
Fri Mar 15 03:00:00 2024,9.56666666666667,9
Fri Mar 15 03:30:00 2024,9,9
Fri Mar 15 04:00:00 2024,9.56666666666667,9
Fri Mar 15 04:30:00 2024,9,9
Fri Mar 15 05:00:00 2024,9.56666666666667,9
Fri Mar 15 05:30:00 2024,9,9
Fri Mar 15 06:00:00 2024,9.56666666666667,9
Fri Mar 15 06:30:00 2024,9,9
Fri Mar 15 07:00:00 2024,11.8666666666667,10
Fri Mar 15 07:30:00 2024,9,9
Fri Mar 15 08:00:00 2024,10.8333333333333,10
Fri Mar 15 08:30:00 2024,9,9
Fri Mar 15 09:00:00 2024,9.58333333333333,9
Fri Mar 15 09:30:00 2024,9,9
Fri Mar 15 10:00:00 2024,9.41666666666667,9
Fri Mar 15 10:30:00 2024,9,9
Fri Mar 15 11:00:00 2024,9.43333333333333,9
Fri Mar 15 11:30:00 2024,9,9
Fri Mar 15 12:00:00 2024,9.43333333333333,9
Fri Mar 15 12:30:00 2024,9,9
Fri Mar 15 13:00:00 2024,9.56666666666667,9
Fri Mar 15 13:30:00 2024,9,9
Fri Mar 15 14:00:00 2024,9,9
Fri Mar 15 14:30:00 2024,9,9
Fri Mar 15 15:00:00 2024,9.56666666666667,9
Fri Mar 15 15:30:00 2024,9,9
Fri Mar 15 16:00:00 2024,9.43333333333333,9
Fri Mar 15 16:30:00 2024,9,9
Fri Mar 15 17:00:00 2024,10.8666666666667,9.56666666666667
Fri Mar 15 17:30:00 2024,9,9
Fri Mar 15 18:00:00 2024,10.4333333333333,9
Fri Mar 15 18:30:00 2024,9,9
Fri Mar 15 19:00:00 2024,9.56666666666667,9
Fri Mar 15 19:30:00 2024,10,9
Fri Mar 15 20:00:00 2024,10.4333333333333,9.56666666666667
Fri Mar 15 20:30:00 2024,9.43333333333333,9
Fri Mar 15 21:00:00 2024,9.43333333333333,9
Fri Mar 15 21:30:00 2024,9,9
Fri Mar 15 22:00:00 2024,9.55,9
Fri Mar 15 22:30:00 2024,9,9
Fri Mar 15 23:00:00 2024,9.9,9
Fri Mar 15 23:30:00 2024,9,9
Sat Mar 16 00:00:00 2024,10.45,9
Sat Mar 16 00:30:00 2024,9,9
Sat Mar 16 01:00:00 2024,9.9,9
Sat Mar 16 01:30:00 2024,9,9
Sat Mar 16 02:00:00 2024,10.45,9
Sat Mar 16 02:30:00 2024,9,9
Sat Mar 16 03:00:00 2024,10.45,9
Sat Mar 16 03:30:00 2024,9,9
Sat Mar 16 04:00:00 2024,11.9,10
Sat Mar 16 04:30:00 2024,9,9
Sat Mar 16 05:00:00 2024,10.45,9
Sat Mar 16 05:30:00 2024,9,9
Sat Mar 16 06:00:00 2024,9,9
Sat Mar 16 06:30:00 2024,9,9
Sat Mar 16 07:00:00 2024,11.9,10
Sat Mar 16 07:30:00 2024,9.75,9
Sat Mar 16 08:00:00 2024,10.4666666666667,10
Sat Mar 16 08:30:00 2024,9,9
Sat Mar 16 09:00:00 2024,9,9
Sat Mar 16 09:30:00 2024,9,9
Sat Mar 16 10:00:00 2024,10.4666666666667,10
Sat Mar 16 10:30:00 2024,9,9
Sat Mar 16 11:00:00 2024,9.73333333333333,9
Sat Mar 16 11:30:00 2024,9,9
Sat Mar 16 12:00:00 2024,10.75,9
Sat Mar 16 12:30:00 2024,9,9
Sat Mar 16 13:00:00 2024,9.75,9
Sat Mar 16 13:30:00 2024,9,9
Sat Mar 16 14:00:00 2024,9.75,9
Sat Mar 16 14:30:00 2024,9,9
Sat Mar 16 15:00:00 2024,9.5,9
Sat Mar 16 15:30:00 2024,9,9
Sat Mar 16 16:00:00 2024,10.5,9
Sat Mar 16 16:30:00 2024,9,9
Sat Mar 16 17:00:00 2024,9,9
Sat Mar 16 17:30:00 2024,9,9
Sat Mar 16 18:00:00 2024,10.25,9
Sat Mar 16 18:30:00 2024,9,9
Sat Mar 16 19:00:00 2024,9.75,9
Sat Mar 16 19:30:00 2024,9,9
Sat Mar 16 20:00:00 2024,9.5,9
Sat Mar 16 20:30:00 2024,9,9
Sat Mar 16 21:00:00 2024,11.25,9.75
Sat Mar 16 21:30:00 2024,9,9
Sat Mar 16 22:00:00 2024,11.25,10
Sat Mar 16 22:30:00 2024,9,9
Sat Mar 16 23:00:00 2024,10.25,9
Sat Mar 16 23:30:00 2024,9,9
Sun Mar 17 00:00:00 2024,9.5,9
Sun Mar 17 00:30:00 2024,9,9
Sun Mar 17 01:00:00 2024,12.75,10
Sun Mar 17 01:30:00 2024,9,9
Sun Mar 17 02:00:00 2024,12,10
Sun Mar 17 02:30:00 2024,9,9
Sun Mar 17 03:00:00 2024,10.5,9
Sun Mar 17 03:30:00 2024,9,9
Sun Mar 17 04:00:00 2024,10.5,9
Sun Mar 17 04:30:00 2024,9,9
Sun Mar 17 05:00:00 2024,10.5,9
Sun Mar 17 05:30:00 2024,9,9
Sun Mar 17 06:00:00 2024,10.5,9
Sun Mar 17 06:30:00 2024,9,9
Sun Mar 17 07:00:00 2024,11.45,10
Sun Mar 17 07:30:00 2024,9,9
Sun Mar 17 08:00:00 2024,10.9666666666667,9
Sun Mar 17 08:30:00 2024,9,9
Sun Mar 17 09:00:00 2024,10.9666666666667,9.51666666666667
Sun Mar 17 09:30:00 2024,9,9
Sun Mar 17 10:00:00 2024,9,9
Sun Mar 17 10:30:00 2024,9,9
Sun Mar 17 11:00:00 2024,9.48333333333333,9
Sun Mar 17 11:30:00 2024,9,9
Sun Mar 17 12:00:00 2024,11.45,9.51666666666667
Sun Mar 17 12:30:00 2024,9,9
Sun Mar 17 13:00:00 2024,9,9
Sun Mar 17 13:30:00 2024,9,9
Sun Mar 17 14:00:00 2024,9.51666666666667,9
Sun Mar 17 14:30:00 2024,9,9
Sun Mar 17 15:00:00 2024,9.48333333333333,9
Sun Mar 17 15:30:00 2024,9.53333333333333,9
Sun Mar 17 16:00:00 2024,9.46666666666667,9
Sun Mar 17 16:30:00 2024,9,9
Sun Mar 17 17:00:00 2024,9.51666666666667,9
Sun Mar 17 17:30:00 2024,9,9
Sun Mar 17 18:00:00 2024,9,9
Sun Mar 17 18:30:00 2024,9,9
Sun Mar 17 19:00:00 2024,11.45,10
Sun Mar 17 19:30:00 2024,9,9
Sun Mar 17 20:00:00 2024,9.51666666666667,9
Sun Mar 17 20:30:00 2024,9,9
Sun Mar 17 21:00:00 2024,11.45,10
Sun Mar 17 21:30:00 2024,9,9
Sun Mar 17 22:00:00 2024,9.51666666666667,9
Sun Mar 17 22:30:00 2024,9,9
Sun Mar 17 23:00:00 2024,10.0666666666667,9
Sun Mar 17 23:30:00 2024,9,9
Mon Mar 18 00:00:00 2024,10.4666666666667,9
Mon Mar 18 00:30:00 2024,9,9
Mon Mar 18 01:00:00 2024,10.6,9.53333333333333
Mon Mar 18 01:30:00 2024,9,9
Mon Mar 18 02:00:00 2024,9.55,9
Mon Mar 18 02:30:00 2024,9,9
Mon Mar 18 03:00:00 2024,10.45,9
Mon Mar 18 03:30:00 2024,9,9
Mon Mar 18 04:00:00 2024,10.9,9.55
Mon Mar 18 04:30:00 2024,9,9
Mon Mar 18 05:00:00 2024,9.55,9
Mon Mar 18 05:30:00 2024,9,9
Mon Mar 18 06:00:00 2024,10.1,9
Mon Mar 18 06:30:00 2024,9,9
Mon Mar 18 07:00:00 2024,11.9,10
Mon Mar 18 07:30:00 2024,9,9
Mon Mar 18 08:00:00 2024,11.7333333333333,10
Mon Mar 18 08:30:00 2024,9,9
Mon Mar 18 09:00:00 2024,9.68333333333333,9
Mon Mar 18 09:30:00 2024,9,9
Mon Mar 18 10:00:00 2024,9.36666666666667,9
Mon Mar 18 10:30:00 2024,9,9
Mon Mar 18 11:00:00 2024,9,9
Mon Mar 18 11:30:00 2024,9,9
Mon Mar 18 12:00:00 2024,9.65,9.65
Mon Mar 18 12:30:00 2024,9,9
Mon Mar 18 13:00:00 2024,10.3,9.65
Mon Mar 18 13:30:00 2024,9,9
Mon Mar 18 14:00:00 2024,10.35,10
Mon Mar 18 14:30:00 2024,9,9
Mon Mar 18 15:00:00 2024,9.63333333333333,9
Mon Mar 18 15:30:00 2024,9,9
Mon Mar 18 16:00:00 2024,9.36666666666667,9
Mon Mar 18 16:30:00 2024,9.26666666666667,9
Mon Mar 18 17:00:00 2024,10,9
Mon Mar 18 17:30:00 2024,9.63333333333333,9
Mon Mar 18 18:00:00 2024,9.63333333333333,9
Mon Mar 18 18:30:00 2024,9,9
Mon Mar 18 19:00:00 2024,9.63333333333333,9.63333333333333
Mon Mar 18 19:30:00 2024,9,9
Mon Mar 18 20:00:00 2024,9.36666666666667,9
Mon Mar 18 20:30:00 2024,9,9
Mon Mar 18 21:00:00 2024,10,9
Mon Mar 18 21:30:00 2024,9,9
Mon Mar 18 22:00:00 2024,9,9
Mon Mar 18 22:30:00 2024,9,9
Mon Mar 18 23:00:00 2024,9.63333333333333,9
Mon Mar 18 23:30:00 2024,9,9
Tue Mar 19 00:00:00 2024,9.63333333333333,9
Tue Mar 19 00:30:00 2024,9,9
Tue Mar 19 01:00:00 2024,9.63333333333333,9
Tue Mar 19 01:30:00 2024,9,9
Tue Mar 19 02:00:00 2024,10,9
Tue Mar 19 02:30:00 2024,9,9
Tue Mar 19 03:00:00 2024,10.2666666666667,9
Tue Mar 19 03:30:00 2024,9,9
Tue Mar 19 04:00:00 2024,10,9
Tue Mar 19 04:30:00 2024,9,9
Tue Mar 19 05:00:00 2024,9.63333333333333,9
Tue Mar 19 05:30:00 2024,9,9
Tue Mar 19 06:00:00 2024,10.3666666666667,9.63333333333333
Tue Mar 19 06:30:00 2024,9,9
Tue Mar 19 07:00:00 2024,11.7333333333333,10
Tue Mar 19 07:30:00 2024,9,9
Tue Mar 19 08:00:00 2024,9.56666666666667,9
Tue Mar 19 08:30:00 2024,9,9
Tue Mar 19 09:00:00 2024,10.1333333333333,9
Tue Mar 19 09:30:00 2024,10,9
Tue Mar 19 10:00:00 2024,9.43333333333333,9
Tue Mar 19 10:30:00 2024,9,9
Tue Mar 19 11:00:00 2024,9.43333333333333,9
Tue Mar 19 11:30:00 2024,9,9
Tue Mar 19 12:00:00 2024,10.8666666666667,9.56666666666667
Tue Mar 19 12:30:00 2024,9,9
Tue Mar 19 13:00:00 2024,9.43333333333333,9
Tue Mar 19 13:30:00 2024,9,9
Tue Mar 19 14:00:00 2024,9.56666666666667,9
Tue Mar 19 14:30:00 2024,9,9
Tue Mar 19 15:00:00 2024,10.4333333333333,9.56666666666667
Tue Mar 19 15:30:00 2024,9,9
Tue Mar 19 16:00:00 2024,9.56666666666667,9
Tue Mar 19 16:30:00 2024,9,9
Tue Mar 19 17:00:00 2024,10.4166666666667,9
Tue Mar 19 17:30:00 2024,9,9
Tue Mar 19 18:00:00 2024,10.8333333333333,10
Tue Mar 19 18:30:00 2024,9,9
Tue Mar 19 19:00:00 2024,10,9
Tue Mar 19 19:30:00 2024,9,9
Tue Mar 19 20:00:00 2024,9.41666666666667,9
Tue Mar 19 20:30:00 2024,9,9
Tue Mar 19 21:00:00 2024,8.58333333333333,9
Tue Mar 19 21:30:00 2024,9,9
Tue Mar 19 22:00:00 2024,10.4333333333333,9
Tue Mar 19 22:30:00 2024,9,9
Tue Mar 19 23:00:00 2024,9,9
Tue Mar 19 23:30:00 2024,9,9
Wed Mar 20 00:00:00 2024,9,9
Wed Mar 20 00:30:00 2024,9,9
Wed Mar 20 01:00:00 2024,9,9
Wed Mar 20 01:30:00 2024,9,9
Wed Mar 20 02:00:00 2024,10.1666666666667,9
Wed Mar 20 02:30:00 2024,9,9
Wed Mar 20 03:00:00 2024,9.58333333333333,9
Wed Mar 20 03:30:00 2024,9,9
Wed Mar 20 04:00:00 2024,10.8666666666667,10
Wed Mar 20 04:30:00 2024,9.56666666666667,9
Wed Mar 20 05:00:00 2024,10,9
Wed Mar 20 05:30:00 2024,9,9
Wed Mar 20 06:00:00 2024,10,9
Wed Mar 20 06:30:00 2024,9,9
Wed Mar 20 07:00:00 2024,11.3,10
Wed Mar 20 07:30:00 2024,9.56666666666667,9
Wed Mar 20 08:00:00 2024,9,9
Wed Mar 20 08:30:00 2024,9,9
Wed Mar 20 09:00:00 2024,9,9
Wed Mar 20 09:30:00 2024,9,9
Wed Mar 20 10:00:00 2024,8.56666666666667,9
Wed Mar 20 10:30:00 2024,9,9
Wed Mar 20 11:00:00 2024,9.45,9
Wed Mar 20 11:30:00 2024,9,9
Wed Mar 20 12:00:00 2024,9,9
Wed Mar 20 12:30:00 2024,9,9
Wed Mar 20 13:00:00 2024,9.53333333333333,9
Wed Mar 20 13:30:00 2024,9,9
Wed Mar 20 14:00:00 2024,9.46666666666667,9
Wed Mar 20 14:30:00 2024,9,9
Wed Mar 20 15:00:00 2024,9.93333333333333,9
Wed Mar 20 15:30:00 2024,9,9
Wed Mar 20 16:00:00 2024,9.53333333333333,9
Wed Mar 20 16:30:00 2024,9,9
Wed Mar 20 17:00:00 2024,9,9
Wed Mar 20 17:30:00 2024,9,9
Wed Mar 20 18:00:00 2024,10,9
Wed Mar 20 18:30:00 2024,9,9
Wed Mar 20 19:00:00 2024,12.4,10
Wed Mar 20 19:30:00 2024,9,9
Wed Mar 20 20:00:00 2024,11.4,10
Wed Mar 20 20:30:00 2024,9,9
Wed Mar 20 21:00:00 2024,9.53333333333333,9
Wed Mar 20 21:30:00 2024,9,9
Wed Mar 20 22:00:00 2024,10.0666666666667,9
Wed Mar 20 22:30:00 2024,9,9
Wed Mar 20 23:00:00 2024,9.46666666666667,9
Wed Mar 20 23:30:00 2024,9,9
Thu Mar 21 00:00:00 2024,9.53333333333333,9
Thu Mar 21 00:30:00 2024,9,9
Thu Mar 21 01:00:00 2024,11.4,10
Thu Mar 21 01:30:00 2024,9,9
Thu Mar 21 02:00:00 2024,9.46666666666667,9
Thu Mar 21 02:30:00 2024,9,9
Thu Mar 21 03:00:00 2024,10.0666666666667,9
Thu Mar 21 03:30:00 2024,9,9
Thu Mar 21 04:00:00 2024,10.9,9
Thu Mar 21 04:30:00 2024,9,9
Thu Mar 21 05:00:00 2024,10.45,9
Thu Mar 21 05:30:00 2024,9,9
Thu Mar 21 06:00:00 2024,9.55,9
Thu Mar 21 06:30:00 2024,9,9
Thu Mar 21 07:00:00 2024,11.35,10
Thu Mar 21 07:30:00 2024,9,9
Thu Mar 21 08:00:00 2024,9.58333333333333,9
Thu Mar 21 08:30:00 2024,9,9
Thu Mar 21 09:00:00 2024,10.4166666666667,9
Thu Mar 21 09:30:00 2024,9,9
Thu Mar 21 10:00:00 2024,9.58333333333333,9
Thu Mar 21 10:30:00 2024,9,9
Thu Mar 21 11:00:00 2024,9.58333333333333,9
Thu Mar 21 11:30:00 2024,9,9
Thu Mar 21 12:00:00 2024,10,10
Thu Mar 21 12:30:00 2024,0,0
Thu Mar 21 13:00:00 2024,0,0
Thu Mar 21 13:30:00 2024,0,0
Thu Mar 21 14:00:00 2024,0,0
Thu Mar 21 14:30:00 2024,0,0
Thu Mar 21 15:00:00 2024,0,0
Thu Mar 21 15:30:00 2024,0,0
Thu Mar 21 16:00:00 2024,0,0
Thu Mar 21 16:30:00 2024,0,0
Thu Mar 21 17:00:00 2024,0,0
Thu Mar 21 17:30:00 2024,0,0
Thu Mar 21 18:00:00 2024,0,0
Thu Mar 21 18:30:00 2024,0,0
Thu Mar 21 19:00:00 2024,0,0
Thu Mar 21 19:30:00 2024,0,0
Thu Mar 21 20:00:00 2024,0,0
Thu Mar 21 20:30:00 2024,0,0
Thu Mar 21 21:00:00 2024,0,0
Thu Mar 21 21:30:00 2024,0,0
Thu Mar 21 22:00:00 2024,0,0
Thu Mar 21 22:30:00 2024,0,0
Thu Mar 21 23:00:00 2024,0,0
Thu Mar 21 23:30:00 2024,0,0
Fri Mar 22 00:00:00 2024,0,0
Fri Mar 22 00:30:00 2024,0,0
Fri Mar 22 01:00:00 2024,0,0
Fri Mar 22 01:30:00 2024,0,0
Fri Mar 22 02:00:00 2024,0,0
Fri Mar 22 02:30:00 2024,0,0
Fri Mar 22 03:00:00 2024,0,0
Fri Mar 22 03:30:00 2024,0,0
Fri Mar 22 04:00:00 2024,0,0
Fri Mar 22 04:30:00 2024,0,0
Fri Mar 22 05:00:00 2024,0,0
Fri Mar 22 05:30:00 2024,0,0
Fri Mar 22 06:00:00 2024,0,0
Fri Mar 22 06:30:00 2024,0,0
Fri Mar 22 07:00:00 2024,0,0
Fri Mar 22 07:30:00 2024,0,0
Fri Mar 22 08:00:00 2024,0,0
Fri Mar 22 08:30:00 2024,0,0
Fri Mar 22 09:00:00 2024,0,0
Fri Mar 22 09:30:00 2024,0,0
Fri Mar 22 10:00:00 2024,0,0
Fri Mar 22 10:30:00 2024,0,0
Fri Mar 22 11:00:00 2024,0,0
Fri Mar 22 11:30:00 2024,0,0
Fri Mar 22 12:00:00 2024,0,0
Fri Mar 22 12:30:00 2024,0,0
Fri Mar 22 13:00:00 2024,0,0
Fri Mar 22 13:30:00 2024,0,0
Fri Mar 22 14:00:00 2024,0,0
Fri Mar 22 14:30:00 2024,0,0
Fri Mar 22 15:00:00 2024,0,0
Fri Mar 22 15:30:00 2024,0,0
Fri Mar 22 16:00:00 2024,0,0
Fri Mar 22 16:30:00 2024,0,0
Fri Mar 22 17:00:00 2024,0,0
Fri Mar 22 17:30:00 2024,0,0
Fri Mar 22 18:00:00 2024,0,0
Fri Mar 22 18:30:00 2024,0,0
Fri Mar 22 19:00:00 2024,0,0
Fri Mar 22 19:30:00 2024,0,0
Fri Mar 22 20:00:00 2024,0,0
Fri Mar 22 20:30:00 2024,0,0
Fri Mar 22 21:00:00 2024,0,0
Fri Mar 22 21:30:00 2024,0,0
Fri Mar 22 22:00:00 2024,0,0
Fri Mar 22 22:30:00 2024,0,0
Fri Mar 22 23:00:00 2024,0,0
Fri Mar 22 23:30:00 2024,0,0
Sat Mar 23 00:00:00 2024,0,0
Sat Mar 23 00:30:00 2024,0,0
Sat Mar 23 01:00:00 2024,0,0
Sat Mar 23 01:30:00 2024,0,0
Sat Mar 23 02:00:00 2024,0,0
Sat Mar 23 02:30:00 2024,0,0
Sat Mar 23 03:00:00 2024,0,0
Sat Mar 23 03:30:00 2024,0,0
Sat Mar 23 04:00:00 2024,0,0
Sat Mar 23 04:30:00 2024,0,0
Sat Mar 23 05:00:00 2024,0,0
Sat Mar 23 05:30:00 2024,0,0
Sat Mar 23 06:00:00 2024,0,0
Sat Mar 23 06:30:00 2024,0,0
Sat Mar 23 07:00:00 2024,9.58333333333333,9
Sat Mar 23 07:30:00 2024,9,9
Sat Mar 23 08:00:00 2024,10,9
Sat Mar 23 08:30:00 2024,9,9
Sat Mar 23 09:00:00 2024,10.1666666666667,9
Sat Mar 23 09:30:00 2024,9,9
Sat Mar 23 10:00:00 2024,10.1666666666667,9
Sat Mar 23 10:30:00 2024,9,9
Sat Mar 23 11:00:00 2024,10.8333333333333,9.58333333333333
Sat Mar 23 11:30:00 2024,9,9
Sat Mar 23 12:00:00 2024,10,9
Sat Mar 23 12:30:00 2024,9,9
Sat Mar 23 13:00:00 2024,9.58333333333333,9
Sat Mar 23 13:30:00 2024,9,9
Sat Mar 23 14:00:00 2024,10.4166666666667,9
Sat Mar 23 14:30:00 2024,9,9
Sat Mar 23 15:00:00 2024,9.58333333333333,9
Sat Mar 23 15:30:00 2024,9,9
Sat Mar 23 16:00:00 2024,9.41666666666667,9
Sat Mar 23 16:30:00 2024,9,9
Sat Mar 23 17:00:00 2024,11.3333333333333,10
Sat Mar 23 17:30:00 2024,9,9
Sat Mar 23 18:00:00 2024,9.58333333333333,9
Sat Mar 23 18:30:00 2024,9,9
Sat Mar 23 19:00:00 2024,9.41666666666667,9
Sat Mar 23 19:30:00 2024,9,9
Sat Mar 23 20:00:00 2024,10.1666666666667,9
Sat Mar 23 20:30:00 2024,9,9
Sat Mar 23 21:00:00 2024,9.58333333333333,9
Sat Mar 23 21:30:00 2024,9,9
Sat Mar 23 22:00:00 2024,9.58333333333333,9
Sat Mar 23 22:30:00 2024,9,9
Sat Mar 23 23:00:00 2024,9,9
Sat Mar 23 23:30:00 2024,9,9
Sun Mar 24 00:00:00 2024,9,9
Sun Mar 24 00:30:00 2024,8.58333333333333,9
Sun Mar 24 01:00:00 2024,9,9
Sun Mar 24 01:30:00 2024,9,9
Sun Mar 24 02:00:00 2024,9,9
Sun Mar 24 02:30:00 2024,9,9
Sun Mar 24 03:00:00 2024,9.4,9
Sun Mar 24 03:30:00 2024,9,9
Sun Mar 24 04:00:00 2024,9.6,9
Sun Mar 24 04:30:00 2024,9.6,9
Sun Mar 24 05:00:00 2024,9.6,9
Sun Mar 24 05:30:00 2024,9,9
Sun Mar 24 06:00:00 2024,9.6,9
Sun Mar 24 06:30:00 2024,9,9
Sun Mar 24 07:00:00 2024,12.2,10
Sun Mar 24 07:30:00 2024,9,9
Sun Mar 24 08:00:00 2024,9.6,9
Sun Mar 24 08:30:00 2024,9.6,9
Sun Mar 24 09:00:00 2024,9,9
Sun Mar 24 09:30:00 2024,9,9
Sun Mar 24 10:00:00 2024,9.6,9
Sun Mar 24 10:30:00 2024,9,9
Sun Mar 24 11:00:00 2024,9,9
Sun Mar 24 11:30:00 2024,9,9
Sun Mar 24 12:00:00 2024,10,9
Sun Mar 24 12:30:00 2024,9,9
Sun Mar 24 13:00:00 2024,9.6,9
Sun Mar 24 13:30:00 2024,9,9
Sun Mar 24 14:00:00 2024,9.6,9
Sun Mar 24 14:30:00 2024,9.6,9
Sun Mar 24 15:00:00 2024,10.4,9
Sun Mar 24 15:30:00 2024,9,9
Sun Mar 24 16:00:00 2024,13.6,11
Sun Mar 24 16:30:00 2024,9,9
Sun Mar 24 17:00:00 2024,9.4,9
Sun Mar 24 17:30:00 2024,9,9
Sun Mar 24 18:00:00 2024,9.6,9
Sun Mar 24 18:30:00 2024,9.6,9
Sun Mar 24 19:00:00 2024,10.8,10
Sun Mar 24 19:30:00 2024,9,9
Sun Mar 24 20:00:00 2024,10.2,9.6
Sun Mar 24 20:30:00 2024,9,9
Sun Mar 24 21:00:00 2024,9.4,9
Sun Mar 24 21:30:00 2024,9,9
Sun Mar 24 22:00:00 2024,9.4,9
Sun Mar 24 22:30:00 2024,9,9
Sun Mar 24 23:00:00 2024,9.6,9
Sun Mar 24 23:30:00 2024,9,9
Mon Mar 25 00:00:00 2024,10.4,9
Mon Mar 25 00:30:00 2024,9,9
Mon Mar 25 01:00:00 2024,11.4,10
Mon Mar 25 01:30:00 2024,9,9
Mon Mar 25 02:00:00 2024,9.4,9
Mon Mar 25 02:30:00 2024,9.6,9
Mon Mar 25 03:00:00 2024,9.4,9
Mon Mar 25 03:30:00 2024,9,9
Mon Mar 25 04:00:00 2024,12.2,10
Mon Mar 25 04:30:00 2024,9,9
Mon Mar 25 05:00:00 2024,10.8,10
Mon Mar 25 05:30:00 2024,9,9
Mon Mar 25 06:00:00 2024,10,9.6
Mon Mar 25 06:30:00 2024,9,9
Mon Mar 25 07:00:00 2024,11.8,10
Mon Mar 25 07:30:00 2024,9,9
Mon Mar 25 08:00:00 2024,10.45,10
Mon Mar 25 08:30:00 2024,9.55,9
Mon Mar 25 09:00:00 2024,9.45,9
Mon Mar 25 09:30:00 2024,9,9
Mon Mar 25 10:00:00 2024,10.45,10
Mon Mar 25 10:30:00 2024,9,9
Mon Mar 25 11:00:00 2024,9.55,9
Mon Mar 25 11:30:00 2024,9,9
Mon Mar 25 12:00:00 2024,9,9
Mon Mar 25 12:30:00 2024,9,9
Mon Mar 25 13:00:00 2024,9.55,9
Mon Mar 25 13:30:00 2024,9,9
Mon Mar 25 14:00:00 2024,9.45,9
Mon Mar 25 14:30:00 2024,9,9
Mon Mar 25 15:00:00 2024,9.55,9
Mon Mar 25 15:30:00 2024,9,9
Mon Mar 25 16:00:00 2024,9.55,9
Mon Mar 25 16:30:00 2024,9,9
Mon Mar 25 17:00:00 2024,9.45,9
Mon Mar 25 17:30:00 2024,9,9
Mon Mar 25 18:00:00 2024,9.55,9
Mon Mar 25 18:30:00 2024,9,9
Mon Mar 25 19:00:00 2024,9.55,9
Mon Mar 25 19:30:00 2024,9,9
Mon Mar 25 20:00:00 2024,9.55,9
Mon Mar 25 20:30:00 2024,9.55,9
Mon Mar 25 21:00:00 2024,9.45,9
Mon Mar 25 21:30:00 2024,9,9
Mon Mar 25 22:00:00 2024,9.55,9
Mon Mar 25 22:30:00 2024,9.55,9
Mon Mar 25 23:00:00 2024,10.1,9.55
Mon Mar 25 23:30:00 2024,9,9
Tue Mar 26 00:00:00 2024,10,9
Tue Mar 26 00:30:00 2024,9,9
Tue Mar 26 01:00:00 2024,9.55,9
Tue Mar 26 01:30:00 2024,9,9
Tue Mar 26 02:00:00 2024,9.55,9
Tue Mar 26 02:30:00 2024,9,9
Tue Mar 26 03:00:00 2024,9.55,9
Tue Mar 26 03:30:00 2024,9,9
Tue Mar 26 04:00:00 2024,10.9,10
Tue Mar 26 04:30:00 2024,9,9
Tue Mar 26 05:00:00 2024,9.55,9
Tue Mar 26 05:30:00 2024,9,9
Tue Mar 26 06:00:00 2024,10.45,9.55
Tue Mar 26 06:30:00 2024,9.55,9
Tue Mar 26 07:00:00 2024,11.9,10
Tue Mar 26 07:30:00 2024,9,9
Tue Mar 26 08:00:00 2024,9.41666666666667,9
Tue Mar 26 08:30:00 2024,9,9
Tue Mar 26 09:00:00 2024,9.58333333333333,9
Tue Mar 26 09:30:00 2024,9,9
Tue Mar 26 10:00:00 2024,10,9
Tue Mar 26 10:30:00 2024,9,9
Tue Mar 26 11:00:00 2024,10.8666666666667,9.56666666666667
Tue Mar 26 11:30:00 2024,9,9
Tue Mar 26 12:00:00 2024,10.1666666666667,9
Tue Mar 26 12:30:00 2024,9,9
Tue Mar 26 13:00:00 2024,9.41666666666667,9
Tue Mar 26 13:30:00 2024,9,9
Tue Mar 26 14:00:00 2024,9.6,9
Tue Mar 26 14:30:00 2024,9,9
Tue Mar 26 15:00:00 2024,9.4,9
Tue Mar 26 15:30:00 2024,9,9
Tue Mar 26 16:00:00 2024,10.4,10
Tue Mar 26 16:30:00 2024,9,9
Tue Mar 26 17:00:00 2024,9.6,9
Tue Mar 26 17:30:00 2024,9,9
Tue Mar 26 18:00:00 2024,10.4,9.6
Tue Mar 26 18:30:00 2024,9,9
Tue Mar 26 19:00:00 2024,10,9
Tue Mar 26 19:30:00 2024,9,9
Tue Mar 26 20:00:00 2024,10.4,10
Tue Mar 26 20:30:00 2024,9,9
Tue Mar 26 21:00:00 2024,9.6,9
Tue Mar 26 21:30:00 2024,9,9
Tue Mar 26 22:00:00 2024,9.6,9
Tue Mar 26 22:30:00 2024,9,9
Tue Mar 26 23:00:00 2024,9.61666666666667,9
Tue Mar 26 23:30:00 2024,9.61666666666667,9
Wed Mar 27 00:00:00 2024,10,9.61666666666667
Wed Mar 27 00:30:00 2024,9,9
Wed Mar 27 01:00:00 2024,9,9
Wed Mar 27 01:30:00 2024,9,9
Wed Mar 27 02:00:00 2024,9.38333333333333,9
Wed Mar 27 02:30:00 2024,9,9
Wed Mar 27 03:00:00 2024,9.61666666666667,9
Wed Mar 27 03:30:00 2024,9,9
Wed Mar 27 04:00:00 2024,12.8,10
Wed Mar 27 04:30:00 2024,9.36666666666667,9
Wed Mar 27 05:00:00 2024,10.9,10
Wed Mar 27 05:30:00 2024,9,9
Wed Mar 27 06:00:00 2024,9.9,9
Wed Mar 27 06:30:00 2024,9,9
Wed Mar 27 07:00:00 2024,12.1666666666667,10
Wed Mar 27 07:30:00 2024,9,9
Wed Mar 27 08:00:00 2024,9.55,9
Wed Mar 27 08:30:00 2024,9,9
Wed Mar 27 09:00:00 2024,10.1,9
Wed Mar 27 09:30:00 2024,9,9
Wed Mar 27 10:00:00 2024,9.55,9
Wed Mar 27 10:30:00 2024,9,9
Wed Mar 27 11:00:00 2024,11.35,10
Wed Mar 27 11:30:00 2024,9,9
Wed Mar 27 12:00:00 2024,9.55,9
Wed Mar 27 12:30:00 2024,9,9
Wed Mar 27 13:00:00 2024,10.9333333333333,9.53333333333333
Wed Mar 27 13:30:00 2024,9,9
Wed Mar 27 14:00:00 2024,10.4833333333333,10
Wed Mar 27 14:30:00 2024,9,9
Wed Mar 27 15:00:00 2024,10.9666666666667,10
Wed Mar 27 15:30:00 2024,9,9
Wed Mar 27 16:00:00 2024,9.48333333333333,9
Wed Mar 27 16:30:00 2024,9,9